1517292001.06,35584,9.88,72962.8,-10.27,-11.33,-11.29,0,*60
1517292002.33,35585,9.88,72966.3,-10.29,-11.29,-11.19,0,*67
1517292003.62,35586,9.88,72964.0,-10.29,-11.29,-11.29,0,*67
1517292004.92,35587,9.88,72962.3,-10.29,-11.29,-11.29,0,*66
1517292006.22,35588,9.94,72960.3,-10.29,-11.29,-11.29,0,*69
1517292007.48,35589,9.88,72956.0,-10.29,-11.19,-11.29,0,*6B
1517292008.75,35590,9.88,72954.3,-10.29,-11.29,-11.19,0,*63
1517292010.02,35591,9.88,72952.8,-10.29,-11.19,-11.29,0,*62
1517292011.23,35592,9.88,72946.8,-10.27,-11.15,-11.15,0,*6C
1517292012.44,35593,9.88,72948.0,-10.27,-11.15,-11.23,0,*68
1517292013.74,35594,9.88,72942.8,-10.29,-11.29,-11.29,0,*64
1517292015.04,35595,9.88,72932.0,-10.29,-11.55,-11.55,0,*65
1517292016.25,35596,9.88,72916.8,-10.27,-11.41,-11.41,0,*68
1517292017.54,35597,9.88,72920.5,-10.29,-11.33,-11.33,0,*67
1517292018.81,35598,9.88,72928.0,-10.29,-11.19,-11.29,0,*6B
1517292020.02,35599,9.88,72932.8,-10.27,-11.23,-11.23,0,*67
1517292021.29,35600,9.88,72930.0,-10.29,-11.29,-11.41,0,*64
1517292022.56,35601,9.88,72932.0,-10.29,-11.29,-11.19,0,*68
1517292023.83,35602,9.88,72924.8,-10.27,-11.29,-11.29,0,*66
1517292025.05,35603,9.88,72924.0,-10.27,-11.23,-11.15,0,*62
1517292026.26,35604,9.88,72918.8,-10.27,-11.23,-11.15,0,*65
1517292027.48,35605,9.88,72910.0,-10.27,-11.23,-11.15,0,*64
1517292028.69,35606,9.88,72906.0,-10.27,-11.23,-11.23,0,*62
1517292029.93,35607,9.88,72904.8,-10.29,-11.19,-11.19,0,*6D
1517292031.14,35608,9.88,72910.5,-10.27,-11.15,-11.11,0,*68
1517292032.38,35609,9.88,72912.3,-10.29,-11.19,-11.19,0,*63
1517292033.59,35610,9.88,72920.8,-10.27,-11.15,-11.15,0,*65
1517292034.82,35611,9.88,72922.5,-10.29,-11.19,-11.19,0,*6A
1517292036.03,35612,9.88,72924.3,-10.27,-11.15,-11.15,0,*67
1517292037.27,35613,9.88,72932.5,-10.29,-11.19,-11.19,0,*68
1517292038.51,35614,9.88,72940.0,-10.29,-11.19,-11.19,0,*6F
1517292039.72,35615,9.88,72944.5,-10.27,-11.15,-11.11,0,*64
1517292040.98,35616,9.88,72946.5,-10.29,-11.19,-11.29,0,*6E
1517292042.26,35617,9.88,72948.0,-10.29,-11.29,-11.15,0,*63
1517292043.53,35618,9.88,72940.8,-10.29,-11.29,-11.15,0,*6C
1517292044.74,35619,9.88,72930.8,-10.27,-11.11,-11.11,0,*6C
1517292045.95,35620,9.88,72934.3,-10.27,-11.11,-11.11,0,*66
1517292047.16,35621,9.88,72932.3,-10.27,-11.11,-11.11,0,*67
1517292048.37,35622,9.88,72934.8,-10.27,-11.11,-11.11,0,*64
1517292049.61,35623,9.88,72932.0,-10.29,-11.15,-11.19,0,*67
1517292050.82,35624,9.88,72932.5,-10.27,-11.15,-11.15,0,*62
1517292052.06,35625,9.88,72940.3,-10.29,-11.19,-11.19,0,*6D
1517292053.27,35626,9.88,72952.0,-10.27,-11.15,-11.23,0,*65
1517292054.54,35627,9.88,72928.5,-10.27,-11.29,-11.29,0,*61
1517292055.78,35628,9.88,72940.0,-10.27,-11.29,-11.23,0,*64
1517292057.02,35629,9.88,72942.5,-10.29,-11.19,-11.19,0,*61
1517292058.26,35630,9.88,72940.0,-10.25,-11.23,-11.23,0,*65
1517292059.47,35631,9.88,72954.8,-10.27,-11.15,-11.15,0,*66
1517292060.71,35632,9.88,72968.3,-10.29,-11.19,-11.19,0,*6B
1517292061.95,35633,9.88,72966.3,-10.27,-11.15,-11.07,0,*67
1517292063.16,35634,9.88,72970.5,-10.27,-11.11,-11.11,0,*63
1517292064.37,35635,9.88,72964.5,-10.27,-11.11,-11.15,0,*66
1517292065.58,35636,9.88,72970.5,-10.27,-11.11,-11.15,0,*65
1517292066.82,35637,9.94,72978.3,-10.27,-11.11,-11.07,0,*67
1517292068.06,35638,9.88,72976.5,-10.27,-11.07,-11.11,0,*68
1517292069.3,35639,9.88,72978.0,-10.27,-11.07,-11.11,0,*69
1517292070.51,35640,9.88,72986.3,-10.27,-11.11,-11.11,0,*60
1517292071.72,35641,9.88,72994.5,-10.27,-11.11,-11.11,0,*61
1517292072.93,35642,9.88,72990.5,-10.27,-11.11,-11.11,0,*62
1517292074.14,35643,9.88,72988.0,-10.27,-11.15,-11.11,0,*67
1517292075.36,35644,9.88,72988.5,-10.27,-11.15,-11.23,0,*61
1517292076.64,35645,9.88,72980.0,-10.29,-11.33,-11.33,0,*6B
1517292077.93,35646,9.88,72990.3,-10.29,-11.33,-11.33,0,*68
1517292079.2,35647,9.88,72978.3,-10.29,-11.33,-11.41,0,*6C
1517292080.46,35648,9.88,72970.8,-10.27,-11.51,-11.51,0,*68
1517292081.76,35649,9.88,72980.0,-10.29,-11.59,-11.67,0,*6A
1517292083.02,35650,9.88,72974.3,-10.27,-11.63,-11.67,0,*65
1517292084.29,35651,9.88,72968.5,-10.27,-11.55,-11.63,0,*65
1517292085.58,35652,9.88,72970.3,-10.29,-11.73,-11.81,0,*60
1517292086.84,35653,9.88,72980.8,-10.27,-11.77,-11.81,0,*6B
1517292088.12,35654,9.88,72978.0,-10.29,-11.81,-11.85,0,*6F
1517292089.39,35655,9.88,72972.3,-10.27,-11.77,-11.67,0,*65
1517292090.68,35656,9.88,72972.5,-10.29,-11.73,-11.67,0,*6C
1517292091.97,35657,9.88,72968.0,-10.29,-11.59,-11.59,0,*68
1517292093.27,35658,9.88,72960.3,-10.29,-11.67,-11.59,0,*6A
1517292094.54,35659,9.88,72962.0,-10.29,-11.59,-11.45,0,*6B
1517292095.81,35660,9.88,72958.0,-10.29,-11.59,-11.45,0,*61
1517292097.05,35661,9.88,72952.5,-10.29,-11.45,-11.45,0,*6D
1517292098.3,35662,9.88,72944.3,-10.29,-11.45,-11.45,0,*6E
1517292099.6,35663,9.88,72940.8,-10.29,-11.55,-11.55,0,*6F
1517292100.87,35664,9.88,72938.8,-10.29,-11.45,-11.55,0,*69
1517292102.14,35665,9.88,72942.8,-10.29,-11.45,-11.33,0,*68
1517292103.38,35666,9.88,72944.3,-10.31,-11.33,-11.41,0,*66
1517292104.65,35667,9.88,72946.0,-10.31,-11.29,-11.29,0,*62
1517292105.86,35668,9.88,72948.3,-10.31,-11.19,-11.19,0,*6D
1517292107.07,35669,9.88,72952.3,-10.31,-11.23,-11.23,0,*6C
1517292108.28,35670,9.88,72954.3,-10.31,-11.19,-11.19,0,*64
1517292109.49,35671,9.88,72970.3,-10.31,-11.19,-11.19,0,*65
1517292110.69,35672,9.88,72974.3,-10.31,-11.19,-11.19,0,*66
1517292111.93,35673,9.88,72982.5,-10.31,-11.29,-11.19,0,*64
1517292113.22,35674,9.88,72988.3,-10.29,-11.33,-11.33,0,*69
1517292114.5,35675,9.88,72998.0,-10.29,-11.45,-11.55,0,*69
1517292115.79,35676,9.88,72984.8,-10.29,-11.55,-11.55,0,*6B
1517292117.09,35677,9.88,72986.0,-10.29,-11.67,-11.59,0,*67
1517292118.37,35678,9.88,72970.5,-10.29,-11.73,-11.81,0,*68
1517292119.64,35679,9.88,72956.0,-10.31,-11.59,-11.67,0,*60
1517292120.86,35680,9.88,72960.3,-10.31,-11.45,-11.45,0,*6B
1517292122.08,35681,9.88,72948.5,-10.31,-11.45,-11.41,0,*6E
1517292123.35,35682,9.88,72936.5,-10.31,-11.67,-11.67,0,*69
1517292124.61,35683,9.88,72928.8,-10.31,-11.59,-11.59,0,*68
1517292125.83,35684,9.88,72928.8,-10.31,-11.41,-11.45,0,*6B
1517292127.09,35685,9.88,72918.0,-10.31,-11.59,-11.55,0,*62
1517292128.31,35686,9.88,72914.8,-10.31,-11.45,-11.45,0,*6D
1517292129.57,35687,9.88,72906.8,-10.31,-11.81,-11.73,0,*61
1517292130.86,35688,9.88,72896.3,-10.33,-11.85,-11.89,0,*6D
1517292132.15,35689,9.88,72884.8,-10.33,-11.85,-11.77,0,*6D
1517292133.41,35690,9.88,72888.5,-10.31,-11.59,-11.59,0,*6A
1517292134.7,35691,9.88,72908.5,-10.33,-11.59,-11.51,0,*61
1517292135.97,35692,9.88,72918.0,-10.33,-11.37,-11.45,0,*6F
1517292137.25,35693,9.88,72926.3,-10.33,-11.37,-11.37,0,*6B
1517292138.54,35694,9.88,72934.5,-10.33,-11.37,-11.37,0,*6C
1517292139.83,35695,9.88,72926.3,-10.33,-11.37,-11.37,0,*6D
1517292141.09,35696,9.88,72930.8,-10.31,-11.55,-11.55,0,*6C
1517292142.36,35697,9.88,72928.8,-10.33,-11.45,-11.59,0,*62
1517292143.63,35698,9.88,72932.8,-10.31,-11.55,-11.55,0,*62
1517292144.88,35699,9.88,72938.8,-10.33,-11.45,-11.45,0,*61
1517292146.14,35700,9.88,72948.8,-10.33,-11.33,-11.23,0,*61
1517292147.43,35701,9.88,72950.5,-10.33,-11.37,-11.37,0,*61
1517292148.72,35702,9.88,72946.5,-10.33,-11.33,-11.29,0,*69
1517292149.98,35703,9.88,72946.3,-10.33,-11.33,-11.23,0,*62
1517292151.27,35704,9.88,72944.3,-10.33,-11.33,-11.33,0,*64
1517292152.53,35705,9.88,72950.5,-10.33,-11.37,-11.45,0,*60
1517292153.75,35706,9.88,72956.8,-10.31,-11.45,-11.41,0,*60
1517292155.02,35707,9.88,72962.8,-10.33,-11.37,-11.45,0,*62
1517292156.31,35708,9.88,72964.0,-10.33,-11.37,-11.37,0,*68
1517292157.59,35709,9.88,72964.3,-10.33,-11.37,-11.37,0,*69
1517292158.85,35710,9.88,72950.8,-10.33,-11.37,-11.45,0,*64
1517292160.1,35711,9.88,72942.0,-10.31,-11.55,-11.41,0,*67
1517292161.36,35712,9.88,72924.0,-10.33,-11.51,-11.45,0,*66
1517292162.65,35713,9.88,72916.8,-10.33,-11.59,-11.51,0,*6A
1517292163.94,35714,9.88,72912.5,-10.33,-11.59,-11.51,0,*6D
1517292165.24,35715,9.88,72922.8,-10.33,-11.63,-11.63,0,*64
1517292166.54,35716,9.88,72930.5,-10.33,-11.63,-11.63,0,*67
1517292167.82,35717,9.88,72938.3,-10.33,-11.73,-11.73,0,*66
1517292169.09,35718,9.88,72944.0,-10.31,-11.55,-11.59,0,*67
1517292170.38,35719,9.88,72944.3,-10.33,-11.73,-11.63,0,*69
1517292171.66,35720,9.88,72952.3,-10.33,-11.73,-11.73,0,*62
1517292172.96,35721,9.88,72946.5,-10.33,-11.73,-11.63,0,*62
1517292174.24,35722,9.88,72938.5,-10.33,-11.85,-11.77,0,*6D
1517292175.53,35723,9.88,72938.5,-10.33,-11.73,-11.77,0,*65
1517292176.79,35724,9.88,72938.5,-10.35,-11.77,-11.85,0,*6D
1517292178.05,35725,9.88,72928.5,-10.35,-11.73,-11.73,0,*61
1517292179.33,35726,9.88,72916.8,-10.35,-11.63,-11.63,0,*62
1517292180.59,35727,9.88,72914.0,-10.35,-11.63,-11.59,0,*6A
1517292181.89,35728,9.88,72918.5,-10.37,-11.55,-11.63,0,*6B
1517292183.17,35729,9.88,72922.8,-10.35,-11.63,-11.63,0,*6D
1517292184.43,35730,9.88,72900.3,-10.35,-11.51,-11.59,0,*6D
1517292185.67,35731,9.88,72898.3,-10.35,-11.37,-11.45,0,*61
1517292186.94,35732,9.88,72900.8,-10.37,-11.41,-11.37,0,*64
1517292188.23,35733,9.88,72900.5,-10.37,-11.37,-11.37,0,*64
1517292189.5,35734,9.88,72894.8,-10.37,-11.41,-11.51,0,*62
1517292190.74,35735,9.88,72880.0,-10.35,-11.23,-11.33,0,*61
1517292191.98,35736,9.88,72874.3,-10.35,-11.33,-11.23,0,*62
1517292193.21,35737,9.88,72868.3,-10.35,-11.23,-11.33,0,*63
1517292194.47,35738,9.88,72876.3,-10.35,-11.33,-11.33,0,*6D
1517292195.73,35739,9.88,72870.3,-10.35,-11.37,-11.33,0,*68
1517292196.98,35740,9.88,72866.3,-10.35,-11.45,-11.37,0,*67
1517292198.24,35741,9.88,72860.8,-10.35,-11.37,-11.33,0,*67
1517292199.53,35742,9.88,72878.5,-10.37,-11.51,-11.51,0,*62
1517292200.77,35743,9.88,72880.8,-10.35,-11.33,-11.23,0,*60
1517292202.03,35744,9.88,72878.0,-10.35,-11.33,-11.33,0,*66
1517292203.32,35745,9.88,72884.3,-10.37,-11.37,-11.37,0,*65
1517292204.53,35746,9.88,72902.5,-10.35,-11.23,-11.23,0,*64
1517292205.75,35747,9.88,72914.3,-10.35,-11.23,-11.23,0,*65
1517292206.99,35748,9.88,72938.0,-10.35,-11.23,-11.33,0,*6B
1517292208.2,35749,9.88,72948.5,-10.35,-11.23,-11.23,0,*6B
1517292209.42,35750,9.88,72952.8,-10.35,-11.19,-11.23,0,*6A
1517292210.66,35751,9.88,72962.5,-10.33,-11.23,-11.23,0,*64
1517292211.9,35752,9.88,72972.3,-10.33,-11.23,-11.23,0,*67
1517292213.13,35753,9.88,72988.0,-10.33,-11.19,-11.23,0,*6F
1517292214.35,35754,9.88,72994.5,-10.35,-11.15,-11.15,0,*67
1517292215.56,35755,9.88,72992.5,-10.35,-11.15,-11.15,0,*66
1517292216.8,35756,9.88,72992.3,-10.33,-11.19,-11.19,0,*63
1517292218.03,35757,9.88,72990.3,-10.33,-11.19,-11.23,0,*6B
1517292219.27,35758,9.88,72986.8,-10.33,-11.23,-11.23,0,*6D
1517292220.51,35759,9.88,72988.3,-10.33,-11.23,-11.23,0,*6C
1517292221.75,35760,9.88,72990.0,-10.33,-11.23,-11.23,0,*66
1517292223.0,35761,9.88,72984.3,-10.33,-11.23,-11.23,0,*67
1517292224.28,35762,9.88,72972.5,-10.33,-11.33,-11.33,0,*64
1517292225.52,35763,9.88,72982.8,-10.31,-11.19,-11.29,0,*64
1517292226.8,35764,9.88,72982.0,-10.33,-11.37,-11.51,0,*62
1517292228.09,35765,9.88,72982.8,-10.33,-11.37,-11.33,0,*67
1517292229.37,35766,9.88,72980.8,-10.33,-11.37,-11.33,0,*64
1517292230.59,35767,9.88,72978.0,-10.31,-11.41,-11.41,0,*63
1517292231.82,35768,9.88,72974.5,-10.31,-11.41,-11.33,0,*69
1517292233.11,35769,9.88,72972.5,-10.33,-11.51,-11.51,0,*6F
1517292234.36,35770,9.88,72976.5,-10.33,-11.45,-11.45,0,*67
1517292235.62,35771,9.88,72972.3,-10.33,-11.37,-11.45,0,*63
1517292236.91,35772,9.88,72974.3,-10.33,-11.37,-11.37,0,*65
1517292238.19,35773,9.88,72974.0,-10.33,-11.37,-11.37,0,*64
1517292239.48,35774,9.88,72970.8,-10.33,-11.37,-11.37,0,*63
1517292240.77,35775,9.88,72956.8,-10.33,-11.59,-11.59,0,*62
1517292242.06,35776,9.88,72940.5,-10.33,-11.77,-11.73,0,*65
1517292243.33,35777,9.88,72936.0,-10.35,-11.63,-11.73,0,*67
1517292244.59,35778,9.88,72926.3,-10.35,-11.51,-11.51,0,*69
1517292245.89,35779,9.88,72932.3,-10.37,-11.63,-11.55,0,*6F
1517292247.13,35780,9.88,72942.0,-10.35,-11.51,-11.45,0,*6B
1517292248.39,35781,9.88,72960.0,-10.35,-11.51,-11.51,0,*6F
1517292249.68,35782,9.88,72964.8,-10.37,-11.51,-11.51,0,*6E
1517292250.92,35783,9.88,72962.0,-10.35,-11.51,-11.45,0,*68
1517292252.18,35784,9.88,72956.8,-10.35,-11.59,-11.59,0,*6A
1517292253.45,35785,9.88,72970.0,-10.35,-11.73,-11.73,0,*6B
1517292254.72,35786,9.88,72980.8,-10.37,-11.89,-12.03,0,*6B
1517292255.98,35787,9.88,72938.8,-10.35,-11.89,-11.85,0,*65
1517292257.25,35788,9.88,72846.3,-10.35,-11.73,-11.63,0,*67
1517292258.53,35789,9.88,72834.0,-10.37,-11.81,-11.77,0,*6C
1517292259.83,35790,9.88,72854.5,-10.37,-11.77,-11.77,0,*6D
1517292261.12,35791,9.88,72844.3,-10.37,-11.67,-11.67,0,*6C
1517292262.42,35792,9.88,72882.8,-10.37,-11.67,-11.63,0,*6B
1517292263.72,35793,9.88,72900.3,-10.37,-11.63,-11.67,0,*6A
1517292265.01,35794,9.88,72874.3,-10.37,-11.77,-11.77,0,*69
1517292266.3,35795,9.88,72892.8,-10.37,-11.67,-11.67,0,*68
1517292267.6,35796,9.88,72884.0,-10.37,-11.55,-11.55,0,*6B
1517292268.9,35797,9.88,72904.8,-10.37,-11.55,-11.55,0,*6A
1517292270.2,35798,9.88,72898.0,-10.37,-11.55,-11.63,0,*60
1517292271.49,35799,9.88,72886.0,-10.37,-11.63,-11.67,0,*60
1517292272.79,35800,9.88,72852.8,-10.41,-11.67,-11.67,0,*6A
1517292274.09,35801,9.88,72852.5,-10.41,-11.67,-11.67,0,*6B
1517292275.39,35802,9.88,72868.0,-10.37,-11.63,-11.55,0,*6C
1517292276.68,35803,9.88,72844.8,-10.41,-11.73,-11.67,0,*6C
1517292277.98,35804,9.88,72888.0,-10.41,-11.67,-11.55,0,*6F
1517292279.21,35805,9.88,72884.8,-10.43,-11.45,-11.45,0,*6D
1517292280.46,35806,9.88,72910.0,-10.41,-11.41,-11.45,0,*68
1517292281.71,35807,9.88,72924.0,-10.41,-11.45,-11.45,0,*6D
1517292283.0,35808,9.88,72934.8,-10.41,-11.33,-11.33,0,*62
1517292284.28,35809,9.88,72942.0,-10.41,-11.33,-11.41,0,*66
1517292285.57,35810,9.88,72950.8,-10.41,-11.33,-11.33,0,*6B
1517292286.85,35811,9.88,72950.8,-10.41,-11.33,-11.41,0,*6F
1517292288.15,35812,9.94,72944.5,-10.41,-11.55,-11.55,0,*69
1517292289.4,35813,9.88,72948.5,-10.41,-11.45,-11.41,0,*6C
1517292290.65,35814,9.88,72956.5,-10.41,-11.45,-11.45,0,*6F
1517292291.9,35815,9.88,72954.3,-10.43,-11.41,-11.33,0,*69
1517292293.17,35816,9.88,72946.5,-10.41,-11.41,-11.33,0,*68
1517292294.42,35817,9.88,72940.3,-10.41,-11.45,-11.45,0,*6C
1517292295.67,35818,9.88,72938.8,-10.41,-11.45,-11.41,0,*67
1517292296.93,35819,9.88,72936.3,-10.41,-11.45,-11.41,0,*66
1517292298.21,35820,9.88,72932.3,-10.41,-11.45,-11.55,0,*69
1517292299.48,35821,9.88,72932.5,-10.41,-11.55,-11.45,0,*68
1517292300.77,35822,9.88,72926.3,-10.41,-11.33,-11.33,0,*6A
1517292302.07,35823,9.88,72924.3,-10.41,-11.33,-11.33,0,*6B
1517292303.32,35824,9.88,72898.5,-10.41,-11.41,-11.41,0,*6C
1517292304.62,35825,9.88,72898.0,-10.41,-11.55,-11.55,0,*6D
1517292305.91,35826,9.88,72904.8,-10.41,-11.59,-11.59,0,*6E
1517292307.21,35827,9.88,72926.8,-10.41,-11.59,-11.67,0,*62
1517292308.51,35828,9.88,72910.0,-10.37,-11.55,-11.67,0,*60
1517292309.81,35829,9.88,72926.3,-10.37,-11.63,-11.63,0,*60
1517292311.11,35830,9.88,72938.8,-10.37,-11.63,-11.55,0,*6D
1517292312.41,35831,9.88,72940.8,-10.37,-11.77,-11.63,0,*6C
1517292313.7,35832,9.88,72942.8,-10.37,-11.77,-11.67,0,*6B
1517292314.97,35833,9.88,72942.8,-10.43,-11.67,-11.67,0,*68
1517292316.25,35834,9.88,72946.0,-10.41,-11.59,-11.45,0,*60
1517292317.5,35835,9.88,72942.8,-10.41,-11.41,-11.41,0,*6C
1517292318.78,35836,9.88,72944.8,-10.41,-11.45,-11.55,0,*6E
1517292320.03,35837,9.88,72944.5,-10.41,-11.41,-11.45,0,*6A
1517292321.33,35838,9.88,72946.0,-10.41,-11.55,-11.55,0,*61
1517292322.58,35839,9.88,72944.8,-10.41,-11.45,-11.45,0,*60
1517292323.83,35840,9.88,72936.0,-10.41,-11.45,-11.45,0,*6E
1517292325.09,35841,9.88,72930.0,-10.41,-11.41,-11.41,0,*6F
1517292326.36,35842,9.88,72930.0,-10.41,-11.45,-11.33,0,*6D
1517292327.63,35843,9.88,72934.8,-10.41,-11.41,-11.33,0,*68
1517292328.88,35844,9.88,72918.0,-10.41,-11.41,-11.45,0,*6E
1517292330.15,35845,9.88,72930.8,-10.41,-11.55,-11.41,0,*6E
1517292331.45,35846,9.88,72918.0,-10.41,-11.33,-11.33,0,*68
1517292332.74,35847,9.88,72930.8,-10.37,-11.37,-11.29,0,*67
1517292334.03,35848,9.88,72950.3,-10.37,-11.37,-11.37,0,*67
1517292335.3,35849,9.88,72958.8,-10.37,-11.41,-11.55,0,*63
1517292336.56,35850,9.88,72958.5,-10.35,-11.37,-11.37,0,*6C
1517292337.8,35851,9.88,72962.3,-10.35,-11.41,-11.51,0,*6C
1517292339.11,35852,9.88,72952.8,-10.37,-11.63,-11.63,0,*6C
1517292340.4,35853,9.88,72946.3,-10.41,-11.85,-11.73,0,*65
1517292341.7,35854,9.88,72956.5,-10.37,-11.55,-11.55,0,*6A
1517292343.0,35855,9.88,72956.8,-10.37,-11.63,-11.63,0,*6B
1517292344.29,35856,9.88,72958.0,-10.37,-11.55,-11.51,0,*6C
1517292345.58,35857,9.88,72956.3,-10.37,-11.77,-11.67,0,*68
1517292346.89,35858,9.88,72952.3,-10.37,-11.93,-11.93,0,*66
1517292348.18,35859,9.88,72962.0,-10.37,-11.63,-11.55,0,*62
1517292349.48,35860,9.88,72962.5,-10.37,-11.51,-11.55,0,*69
1517292350.77,35861,9.88,72970.8,-10.37,-11.55,-11.55,0,*6C
1517292352.07,35862,9.88,72968.0,-10.37,-11.63,-11.55,0,*6A
1517292353.34,35863,9.88,72978.0,-10.35,-11.59,-11.51,0,*64
1517292354.63,35864,9.88,72972.5,-10.37,-11.51,-11.51,0,*69
1517292355.9,35865,9.88,72972.8,-10.37,-11.89,-12.03,0,*69
1517292357.16,35866,9.88,72978.3,-10.35,-11.77,-11.73,0,*6D
1517292358.45,35867,9.88,72982.3,-10.37,-11.67,-11.77,0,*6B
1517292359.73,35868,9.88,72972.8,-10.37,-11.93,-12.03,0,*6F
1517292361.0,35869,9.88,72974.3,-10.37,-11.93,-12.03,0,*6E
1517292362.27,35870,9.88,72970.8,-10.37,-12.03,-11.93,0,*66
1517292363.58,35871,9.88,72964.0,-10.41,-11.93,-11.93,0,*6C
1517292364.88,35872,9.88,72958.8,-10.41,-11.85,-11.93,0,*68
1517292366.15,35873,9.88,72958.3,-10.43,-12.07,-11.97,0,*66
1517292367.44,35874,9.88,72952.0,-10.41,-11.97,-11.97,0,*69
1517292368.75,35875,9.88,72950.0,-10.41,-11.93,-11.85,0,*6F
1517292370.05,35876,9.88,72946.0,-10.41,-11.93,-11.93,0,*6B
1517292371.35,35877,9.88,72946.5,-10.41,-11.85,-11.73,0,*63
1517292372.64,35878,9.88,72942.8,-10.41,-11.81,-11.81,0,*65
1517292373.91,35879,9.88,72936.5,-10.43,-12.07,-12.07,0,*66
1517292375.2,35880,9.88,72912.0,-10.41,-11.85,-11.85,0,*62
1517292376.49,35881,9.88,72896.5,-10.41,-11.81,-11.81,0,*63
1517292377.79,35882,9.88,72894.5,-10.41,-11.85,-11.93,0,*67
1517292379.09,35883,9.88,72878.0,-10.41,-11.97,-11.93,0,*65
1517292380.36,35884,9.88,72876.8,-10.43,-11.97,-11.97,0,*64
1517292381.61,35885,9.88,72858.0,-10.43,-12.11,-12.21,0,*66
1517292382.88,35886,9.88,72888.5,-10.45,-12.11,-12.07,0,*67
1517292384.14,35887,9.88,72934.3,-10.45,-11.73,-11.73,0,*61
1517292385.4,35888,9.88,72954.5,-10.45,-11.73,-11.67,0,*6B
1517292386.65,35889,9.88,72928.3,-10.45,-11.81,-11.81,0,*6F
1517292387.92,35890,9.88,72894.8,-10.45,-11.85,-11.81,0,*63
1517292389.18,35891,9.88,72902.0,-10.45,-11.67,-11.59,0,*6B
1517292390.45,35892,9.88,72914.8,-10.45,-11.55,-11.55,0,*65
1517292391.71,35893,9.88,72906.0,-10.45,-11.73,-11.73,0,*64
1517292392.98,35894,9.88,72882.8,-10.45,-11.67,-11.67,0,*63
1517292394.24,35895,9.88,72870.3,-10.45,-11.67,-11.67,0,*62
1517292395.51,35896,9.88,72894.8,-10.45,-11.59,-11.67,0,*6C
1517292396.77,35897,9.88,72894.3,-10.45,-11.73,-11.73,0,*60
1517292398.03,35898,9.88,72912.0,-10.45,-11.73,-11.73,0,*6F
1517292399.32,35899,9.88,72918.8,-10.47,-11.63,-11.63,0,*6C
1517292400.59,35900,9.88,72922.5,-10.45,-11.55,-11.55,0,*6F
1517292401.88,35901,9.88,72920.3,-10.47,-11.59,-11.55,0,*60
1517292403.14,35902,9.88,72924.8,-10.47,-11.45,-11.51,0,*6A
1517292404.41,35903,9.88,72926.3,-10.47,-11.45,-11.51,0,*6B
1517292405.63,35904,9.88,72930.3,-10.45,-11.41,-11.41,0,*6B
1517292406.87,35905,9.88,72934.5,-10.45,-11.33,-11.41,0,*6F
1517292408.11,35906,9.88,72938.8,-10.47,-11.45,-11.45,0,*6B
1517292409.37,35907,9.88,72944.0,-10.45,-11.33,-11.33,0,*68
1517292410.63,35908,9.88,72942.3,-10.45,-11.33,-11.33,0,*67
1517292411.89,35909,9.88,72930.3,-10.45,-11.33,-11.33,0,*66
1517292413.15,35910,9.88,72936.3,-10.45,-11.33,-11.33,0,*6E
1517292414.41,35911,9.88,72940.3,-10.45,-11.33,-11.33,0,*6F
1517292415.63,35912,9.88,72944.3,-10.45,-11.41,-11.41,0,*6C
1517292416.9,35913,9.88,72948.0,-10.45,-11.55,-11.55,0,*6D
1517292418.13,35914,9.88,72960.8,-10.45,-11.41,-11.33,0,*6F
1517292419.39,35915,9.88,72962.8,-10.45,-11.33,-11.33,0,*6B
1517292420.65,35916,9.88,72960.0,-10.45,-11.33,-11.33,0,*68
1517292421.91,35917,9.88,72970.3,-10.45,-11.33,-11.33,0,*69
1517292423.17,35918,9.88,72974.0,-10.45,-11.33,-11.33,0,*66
1517292424.41,35919,9.88,72970.5,-10.45,-11.41,-11.33,0,*62
1517292425.64,35920,9.88,72972.0,-10.43,-11.45,-11.45,0,*6B
1517292426.86,35921,9.88,72982.8,-10.43,-11.45,-11.45,0,*6A
1517292428.12,35922,9.88,72984.3,-10.43,-11.45,-11.55,0,*68
1517292429.34,35923,9.88,72976.8,-10.43,-11.45,-11.45,0,*68
1517292430.61,35924,9.88,72986.3,-10.43,-11.55,-11.55,0,*6F
1517292431.89,35925,9.88,72984.0,-10.43,-11.55,-11.55,0,*6E
1517292433.13,35926,9.88,72984.5,-10.43,-11.55,-11.45,0,*6C
1517292434.36,35927,9.88,72988.3,-10.43,-11.41,-11.45,0,*68
1517292435.6,35928,9.88,72998.3,-10.43,-11.55,-11.45,0,*62
1517292436.83,35929,9.88,73002.0,-10.43,-11.45,-11.45,0,*62
1517292438.05,35930,9.88,73006.3,-10.43,-11.45,-11.45,0,*6A
1517292439.3,35931,9.88,73008.8,-10.43,-11.55,-11.41,0,*6E
1517292440.53,35932,9.88,73006.5,-10.43,-11.41,-11.45,0,*6C
1517292441.83,35933,9.88,73004.0,-10.41,-11.55,-11.55,0,*6B
1517292443.09,35934,9.88,72998.8,-10.45,-11.67,-11.67,0,*68
1517292444.36,35935,9.88,72988.3,-10.43,-11.59,-11.73,0,*67
1517292445.62,35936,9.88,72980.5,-10.45,-11.73,-11.73,0,*6A
1517292446.89,35937,9.88,72998.8,-10.45,-11.59,-11.59,0,*6B
1517292448.15,35938,9.88,72992.5,-10.45,-11.81,-11.85,0,*60
1517292449.41,35939,9.88,72990.5,-10.45,-11.97,-11.97,0,*65
1517292450.68,35940,9.88,72976.0,-10.45,-11.97,-12.07,0,*61
1517292451.94,35941,9.88,72958.5,-10.45,-12.07,-11.97,0,*60
1517292453.2,35942,9.88,72968.0,-10.45,-11.81,-11.85,0,*6D
1517292454.47,35943,9.88,72970.0,-10.45,-11.67,-11.73,0,*6D
1517292455.75,35944,9.88,72938.0,-10.47,-11.85,-11.97,0,*6E
1517292457.01,35945,9.88,72926.3,-10.47,-11.97,-12.03,0,*62
1517292458.28,35946,9.88,72924.5,-10.45,-12.07,-12.07,0,*6D
1517292459.57,35947,9.88,72932.8,-10.47,-12.11,-12.11,0,*6E
1517292460.83,35948,9.88,72950.3,-10.45,-12.07,-12.07,0,*63
1517292462.1,35949,9.88,72948.5,-10.47,-12.11,-12.03,0,*63
1517292463.33,35950,9.88,72944.3,-10.47,-12.03,-12.03,0,*68
1517292464.59,35951,9.88,72932.0,-10.47,-12.03,-11.97,0,*67
1517292465.87,35952,9.88,72932.3,-10.47,-11.97,-11.97,0,*6A
1517292467.16,35953,9.88,72934.8,-10.47,-12.11,-12.11,0,*6B
1517292468.43,35954,9.88,72908.3,-10.49,-12.11,-12.11,0,*62
1517292469.72,35955,9.88,72902.0,-10.47,-11.97,-11.89,0,*62
1517292471.0,35956,9.88,72906.5,-10.47,-11.97,-11.97,0,*6E
1517292472.27,35957,9.88,72918.3,-10.51,-12.07,-12.03,0,*6C
1517292473.54,35958,9.88,72936.5,-10.49,-11.89,-11.89,0,*6E
1517292474.8,35959,9.88,72898.8,-10.49,-11.89,-11.85,0,*63
1517292476.07,35960,9.88,72838.0,-10.49,-11.97,-11.89,0,*6A
1517292477.31,35961,9.88,72856.8,-10.51,-12.03,-12.03,0,*6D
1517292478.58,35962,9.88,72898.3,-10.49,-11.89,-11.89,0,*67
1517292479.84,35963,9.88,72884.5,-10.49,-11.77,-11.77,0,*66
1517292481.08,35964,9.88,72880.3,-10.51,-12.03,-12.03,0,*68
1517292482.37,35965,9.88,72898.0,-10.51,-12.15,-12.15,0,*69
1517292483.66,35966,9.88,72880.3,-10.51,-12.15,-12.07,0,*69
1517292484.95,35967,9.88,72864.8,-10.51,-12.15,-12.15,0,*6B
1517292486.23,35968,9.88,72846.0,-10.51,-11.93,-12.03,0,*6E
1517292487.47,35969,9.88,72850.8,-10.51,-12.03,-12.03,0,*65
1517292488.77,35970,9.88,72854.5,-10.51,-11.93,-11.93,0,*6D
1517292490.06,35971,9.88,72886.5,-10.51,-11.67,-11.67,0,*6C
1517292491.35,35972,9.88,72892.8,-10.51,-11.55,-11.51,0,*6B
1517292492.65,35973,9.88,72904.0,-10.51,-11.55,-11.55,0,*6E
1517292493.93,35974,9.88,72922.0,-10.51,-11.51,-11.51,0,*69
1517292495.21,35975,9.88,72912.8,-10.49,-11.63,-11.63,0,*61
1517292496.47,35976,9.88,72916.5,-10.49,-11.77,-11.77,0,*62
1517292497.75,35977,9.88,72928.3,-10.51,-11.77,-11.81,0,*63
1517292499.05,35978,9.88,72902.5,-10.51,-11.93,-11.89,0,*6E
1517292500.34,35979,9.88,72926.5,-10.51,-11.89,-11.81,0,*6C
1517292501.6,35980,9.88,72924.3,-10.49,-11.77,-11.77,0,*6B
1517292502.89,35981,9.88,72920.0,-10.51,-11.81,-11.81,0,*63
1517292504.19,35982,9.88,72900.0,-10.51,-11.93,-11.93,0,*60
1517292505.49,35983,9.88,72900.8,-10.51,-11.93,-11.93,0,*61